User: anonymous   Login
Location: Ajisawe
(8.4333°N, 4.3833°E)
Time: 08:08:22
(UTC+00:00)
Language:

Vanguard 2 Rocket - Orbit

View from above orbital plane
View from above orbital plane
View from above satellite
View from above satellite

Ground track
Ground track

The orbit data is extracted from the following two-line orbital elements,

1 00012U 59001B   21109.89880764  .00000038  00000-0 -12506-6 0  9993
2 00012  32.9140 358.6996 1666825 247.1899  94.4496 11.44400408315094
Epoch (UTC): 19 April 2021 21:34:16
Eccentricity: 0.1666825
inclination: 32.9140°
perigee height: 553 km
apogee height: 3326 km
right ascension of ascending node: 358.6996°
argument of perigee: 247.1899°
revolutions per day: 11.44400408
mean anomaly at epoch: 94.4496°
orbit number at epoch: 31509

The dashed part of the orbit path shows where the satellite is in the earth's shadow,  

DLR